Spirit of St Louis, MO

10:09 PM CDT on April 24, 2017 (GMT -0500)
Spirit Of Saint Louis

Weather History for KSUS - March, 2013

Change the Weather History Date:

Saturday, March 23, 2013

  Actual Average Record
Temperature  
Mean Temperature 45 °F -  
Max Temperature 54 °F 56 °F 75 °F (2009)
Min Temperature 37 °F 33 °F 21 °F (2002)
Degree Days  
Heating Degree Days 20    
Moisture  
Dew Point 27 °F    
Average Humidity 53    
Maximum Humidity 76    
Minimum Humidity 35    
Precipitation  
Precipitation 0.02 in - - ()
Sea Level Pressure  
Sea Level Pressure 29.96 in    
Wind  
Wind Speed 7 mph (ENE)    
Max Wind Speed 14 mph    
Max Gust Speed 21 mph    
Visibility 10 miles    
Events Rain    
Averages and records for this station are not official NWS values.
T = Trace of Precipitation, MM = Missing Value Source: NWS Daily Summary

Daily Weather History Graph

Daily Weather History Graph

Search for Another Location

Airport or City:

Trip Planner

Search our weather history database for the weather conditions in past years. The results will help you decide how hot, cold, wet, or windy it might be!

Date:

Astronomy

Mar. 23, 2013 Rise Set
Actual Time 7:00 AM CDT 7:17 PM CDT
Civil Twilight 6:34 AM CDT 7:44 PM CDT
Nautical Twilight 6:03 AM CDT 8:15 PM CDT
Astronomical Twilight 5:31 AM CDT 8:47 PM CDT
Moon 3:46 PM CDT (3/23) 4:35 AM CDT (3/23)
Length of Visible Light 13h 09m
Length of Day
12h 16m
Waxing Gibbous, 85% of the Moon is Illuminated
Mar 23
Waxing Gibbous
Mar 27
Full
Apr 2
Last Quarter
Apr 10
New
Apr 18
First Quarter

Hourly Weather History & Observations

Time (CDT) Temp. Windchill Dew Point Humidity Pressure Visibility Wind Dir Wind Speed Gust Speed Precip Events Conditions
12:54 AM 37.9 °F 32.7 °F 24.1 °F 57% 30.03 in 10.0 mi ENE 6.9 mph - N/A   Overcast
1:54 AM 37.9 °F 35.5 °F 24.1 °F 57% 30.04 in 10.0 mi East 3.5 mph - N/A   Overcast
2:33 AM 37.4 °F 33.8 °F 24.8 °F 60% 30.02 in 10.0 mi East 4.6 mph - N/A   Overcast
2:54 AM 37.9 °F 35.5 °F 24.1 °F 57% 30.03 in 10.0 mi East 3.5 mph - N/A   Overcast
3:54 AM 37.9 °F 34.4 °F 24.1 °F 57% 30.01 in 10.0 mi ENE 4.6 mph - N/A   Overcast
4:54 AM 37.9 °F 35.5 °F 24.1 °F 57% 30.01 in 10.0 mi NE 3.5 mph - N/A   Overcast
5:24 AM 37.4 °F 34.9 °F 24.8 °F 60% 30.00 in 10.0 mi ENE 3.5 mph - N/A   Overcast
5:33 AM 37.4 °F 33.8 °F 24.8 °F 60% 30.00 in 10.0 mi ENE 4.6 mph - N/A   Overcast
5:54 AM 37.9 °F 35.5 °F 24.1 °F 57% 30.03 in 10.0 mi ENE 3.5 mph - N/A   Overcast
6:54 AM 37.9 °F 32.7 °F 24.1 °F 57% 30.04 in 10.0 mi ENE 6.9 mph - N/A   Overcast
7:54 AM 37.4 °F 32.8 °F 24.8 °F 60% 30.04 in 10.0 mi NE 5.8 mph - N/A   Overcast
8:54 AM 39.0 °F 32.8 °F 23.0 °F 53% 30.06 in 10.0 mi ENE 9.2 mph - N/A   Overcast
9:54 AM 41.0 °F 33.9 °F 21.0 °F 45% 30.04 in 10.0 mi East 12.7 mph - N/A   Overcast
10:54 AM 44.1 °F 38.6 °F 19.9 °F 38% 30.04 in 10.0 mi NE 10.4 mph - N/A   Mostly Cloudy
11:54 AM 46.0 °F 43.1 °F 19.9 °F 35% 30.04 in 10.0 mi ENE 5.8 mph - N/A   Mostly Cloudy
12:54 PM 48.9 °F - 23.0 °F 36% 30.01 in 10.0 mi NE 11.5 mph - N/A   Partly Cloudy
1:54 PM 52.0 °F - 25.0 °F 35% 29.98 in 10.0 mi ENE 12.7 mph 20.7 mph N/A   Scattered Clouds
2:54 PM 52.0 °F - 25.0 °F 35% 29.94 in 10.0 mi NE 9.2 mph 17.3 mph N/A   Scattered Clouds
3:54 PM 53.1 °F - 26.1 °F 35% 29.91 in 10.0 mi ENE 13.8 mph 19.6 mph N/A   Overcast
4:54 PM 52.0 °F - 27.0 °F 38% 29.88 in 10.0 mi ENE 11.5 mph - N/A   Overcast
5:54 PM 51.1 °F - 28.9 °F 43% 29.86 in 10.0 mi East 9.2 mph - N/A   Overcast
6:54 PM 50.0 °F - 30.9 °F 48% 29.87 in 10.0 mi East 6.9 mph - 0.00 in Rain Light Rain
7:54 PM 48.9 °F - 32.0 °F 52% 29.84 in 10.0 mi NE 11.5 mph - 0.00 in   Overcast
8:54 PM 48.0 °F - 32.0 °F 54% 29.84 in 10.0 mi NE 9.2 mph - 0.00 in Rain Light Rain
9:54 PM 46.0 °F - 35.1 °F 66% 29.86 in 10.0 mi Calm Calm - 0.00 in   Overcast
10:47 PM 44.6 °F 40.2 °F 33.8 °F 66% 29.86 in 5.0 mi East 8.1 mph - 0.01 in Rain Light Rain
10:54 PM 44.1 °F 37.7 °F 35.1 °F 71% 29.88 in 7.0 mi ENE 12.7 mph 16.1 mph 0.01 in Rain Light Rain
11:09 PM 44.6 °F 39.7 °F 35.6 °F 71% 29.86 in 7.0 mi NE 9.2 mph - 0.01 in Rain Light Rain
11:54 PM 43.0 °F 37.2 °F 36.0 °F 76% 29.85 in 7.0 mi ENE 10.4 mph - 0.01 in Rain Light Rain